�������l�o���
Date,Time,MP-1(��Sv/h),MP-2(��Sv/h),MP-3(��Sv/h),MP-4(��Sv/h),MP-5(��Sv/h),MP-6(��Sv/h),MP-7(��Sv/h),����,����(m/s),���J
2022/06/30,00:00,0.156,0.143,0.228,0.221,0.218,0.121,0.078,-,CALM,��
2022/06/30,00:10,0.155,0.144,0.227,0.219,0.219,0.122,0.078,���k��,0.8,��
2022/06/30,00:20,0.154,0.143,0.231,0.224,0.218,0.122,0.078,���k��,0.7,��
2022/06/30,00:30,0.156,0.144,0.230,0.221,0.217,0.122,0.078,-,CALM,��
2022/06/30,00:40,0.155,0.144,0.228,0.220,0.221,0.121,0.079,���쓌,1.6,��
2022/06/30,00:50,0.154,0.143,0.231,0.223,0.218,0.122,0.079,���쓌,1.3,��
2022/06/30,01:00,0.156,0.144,0.228,0.223,0.217,0.122,0.079,���쓌,0.9,��
2022/06/30,01:10,0.156,0.144,0.229,0.220,0.219,0.122,0.078,�k�k��,1.1,��
2022/06/30,01:20,0.154,0.142,0.232,0.221,0.219,0.122,0.078,�k,2.2,��
2022/06/30,01:30,0.156,0.143,0.229,0.222,0.217,0.122,0.078,�k�k��,1.5,��
2022/06/30,01:40,0.156,0.143,0.227,0.219,0.217,0.122,0.078,�k�k��,1.7,��
2022/06/30,01:50,0.154,0.143,0.230,0.220,0.218,0.122,0.078,�k��,3.7,��
2022/06/30,02:00,0.157,0.143,0.230,0.222,0.218,0.122,0.078,���k��,4.8,��
2022/06/30,02:10,0.156,0.143,0.228,0.220,0.217,0.121,0.078,���k��,5.6,��
2022/06/30,02:20,0.153,0.142,0.232,0.222,0.218,0.122,0.079,���k��,5.4,��
2022/06/30,02:30,0.152,0.143,0.229,0.222,0.219,0.120,0.078,���k��,5.3,��
2022/06/30,02:40,0.155,0.143,0.226,0.219,0.218,0.123,0.078,���k��,4.6,��
2022/06/30,02:50,0.155,0.143,0.229,0.219,0.215,0.122,0.079,���k��,5.8,��
2022/06/30,03:00,0.155,0.143,0.229,0.221,0.216,0.122,0.078,�k��,5.2,��
2022/06/30,03:10,0.153,0.142,0.228,0.221,0.219,0.123,0.077,�k��,4.7,��
2022/06/30,03:20,0.153,0.143,0.228,0.220,0.219,0.122,0.078,���k��,3.5,��
2022/06/30,03:30,0.155,0.142,0.228,0.220,0.217,0.120,0.078,�k��,4.5,��
2022/06/30,03:40,0.155,0.142,0.231,0.219,0.215,0.122,0.078,�k��,5.0,��
2022/06/30,03:50,0.154,0.145,0.227,0.223,0.218,0.122,0.078,�k��,4.7,��
2022/06/30,04:00,0.155,0.145,0.227,0.219,0.220,0.121,0.078,���k��,5.7,��
2022/06/30,04:10,0.153,0.143,0.229,0.220,0.217,0.123,0.079,���k��,4.3,��
2022/06/30,04:20,0.154,0.142,0.231,0.218,0.217,0.121,0.077,���k��,4.9,��
2022/06/30,04:30,0.155,0.142,0.228,0.221,0.216,0.120,0.078,���k��,6.9,��
2022/06/30,04:40,0.155,0.143,0.228,0.221,0.216,0.121,0.078,���k��,9.0,��
2022/06/30,04:50,0.154,0.144,0.229,0.220,0.220,0.122,0.078,���k��,8.4,��
2022/06/30,05:00,0.153,0.143,0.231,0.220,0.218,0.121,0.077,���k��,9.8,��
2022/06/30,05:10,0.153,0.143,0.228,0.218,0.217,0.121,0.079,���k��,9.5,��
2022/06/30,05:20,0.154,0.142,0.227,0.221,0.216,0.122,0.078,���k��,10.7,��
2022/06/30,05:30,0.156,0.142,0.227,0.221,0.216,0.122,0.078,���k��,10.6,��
2022/06/30,05:40,0.155,0.143,0.229,0.221,0.216,0.122,0.077,���k��,11.8,��
2022/06/30,05:50,0.155,0.143,0.230,0.221,0.215,0.121,0.077,���k��,11.4,��
2022/06/30,06:00,0.155,0.143,0.228,0.219,0.216,0.121,0.078,���k��,13.3,��
2022/06/30,06:10,0.154,0.142,0.228,0.218,0.217,0.121,0.078,���k��,11.7,��
2022/06/30,06:20,0.154,0.143,0.228,0.219,0.217,0.122,0.078,��,11.2,��
2022/06/30,06:30,0.154,0.143,0.228,0.219,0.217,0.122,0.078,���k��,10.7,��
2022/06/30,06:40,0.153,0.143,0.228,0.219,0.217,0.121,0.078,���k��,9.3,��
2022/06/30,06:50,0.154,0.143,0.227,0.219,0.216,0.121,0.078,���k��,11.7,��
2022/06/30,07:00,0.154,0.144,0.228,0.218,0.217,0.121,0.078,���k��,10.0,��
2022/06/30,07:10,0.154,0.144,0.228,0.219,0.218,0.121,0.078,���k��,10.3,��
2022/06/30,07:20,0.154,0.145,0.229,0.220,0.216,0.121,0.079,���k��,10.4,��
2022/06/30,07:30,0.155,0.143,0.227,0.219,0.217,0.122,0.079,���k��,11.8,��
2022/06/30,07:40,0.155,0.144,0.228,0.219,0.217,0.122,0.079,�k��,8.8,��
2022/06/30,07:50,0.154,0.143,0.229,0.219,0.218,0.121,0.078,�k��,9.2,��
2022/06/30,08:00,0.155,0.144,0.228,0.219,0.218,0.123,0.078,�k��,10.6,��
2022/06/30,08:10,0.155,0.144,0.230,0.221,0.218,0.122,0.078,���k��,10.9,��
2022/06/30,08:20,0.155,0.144,0.229,0.221,0.218,0.122,0.078,�k��,10.0,��
2022/06/30,08:30,0.155,0.143,0.230,0.221,0.219,0.122,0.079,�k��,12.0,��
2022/06/30,08:40,0.155,0.145,0.231,0.222,0.218,0.123,0.079,���k��,11.5,��
2022/06/30,08:50,0.155,0.145,0.231,0.223,0.220,0.122,0.079,���k��,10.9,�L
2022/06/30,09:00,0.155,0.145,0.231,0.222,0.220,0.122,0.079,���k��,10.1,��
2022/06/30,09:10,0.155,0.144,0.233,0.223,0.219,0.122,0.079,��,13.4,��
2022/06/30,09:20,0.155,0.145,0.232,0.224,0.220,0.123,0.078,���k��,12.9,��
2022/06/30,09:30,0.156,0.145,0.233,0.225,0.220,0.122,0.079,��,14.3,��
2022/06/30,09:40,0.156,0.145,0.231,0.224,0.220,0.123,0.079,���k��,14.9,��
2022/06/30,09:50,0.156,0.145,0.232,0.225,0.219,0.125,0.079,���k��,11.8,��
2022/06/30,10:00,0.157,0.145,0.232,0.224,0.220,0.123,0.078,���k��,12.3,��
2022/06/30,10:10,0.157,0.145,0.232,0.224,0.219,0.124,0.080,���k��,8.2,��
2022/06/30,10:20,0.158,0.144,0.232,0.224,0.219,0.123,0.079,���k��,8.1,��
2022/06/30,10:30,0.157,0.146,0.232,0.224,0.220,0.123,0.079,���k��,11.5,��
2022/06/30,10:40,0.157,0.145,0.231,0.225,0.219,0.123,0.080,���k��,9.6,��
2022/06/30,10:50,0.157,0.146,0.228,0.225,0.219,0.123,0.079,���k��,8.8,��
2022/06/30,11:00,0.156,0.145,0.229,0.223,0.220,0.123,0.079,���k��,11.7,��
2022/06/30,11:10,0.157,0.145,0.229,0.224,0.219,0.123,0.079,���k��,9.8,��
2022/06/30,11:20,0.157,0.145,0.227,0.225,0.219,0.123,0.078,�k��,6.9,��
2022/06/30,11:30,0.157,0.145,0.228,0.224,0.218,0.123,0.080,���k��,8.5,��
2022/06/30,11:40,0.155,0.145,0.229,0.225,0.219,0.123,0.079,���k��,8.6,��
2022/06/30,11:50,0.158,0.144,0.230,0.224,0.218,0.121,0.078,���k��,10.3,��
2022/06/30,12:00,0.158,0.144,0.230,0.224,0.216,0.122,0.077,���k��,8.8,��
2022/06/30,12:10,0.157,0.144,0.229,0.221,0.215,0.120,0.077,���k��,10.0,��
2022/06/30,12:20,0.156,0.144,0.230,0.221,0.215,0.121,0.078,���k��,9.3,��
2022/06/30,12:30,0.157,0.144,0.230,0.221,0.216,0.121,0.077,�k��,9.2,��
2022/06/30,12:40,0.157,0.144,0.231,0.218,0.215,0.122,0.078,���k��,7.4,��
2022/06/30,12:50,0.156,0.144,0.231,0.219,0.215,0.121,0.077,���k��,9.6,��
2022/06/30,13:00,0.157,0.144,0.231,0.220,0.216,0.122,0.078,�k��,9.6,��
2022/06/30,13:10,0.156,0.145,0.231,0.220,0.217,0.122,0.078,���k��,7.5,��
2022/06/30,13:20,0.156,0.144,0.231,0.220,0.216,0.122,0.078,���k��,7.8,��
2022/06/30,13:30,0.156,0.144,0.231,0.220,0.216,0.122,0.078,�k��,9.2,��
2022/06/30,13:40,0.158,0.144,0.231,0.222,0.217,0.122,0.078,�k��,7.4,��
2022/06/30,13:50,0.158,0.145,0.231,0.221,0.217,0.122,0.078,��,6.6,��
2022/06/30,14:00,0.158,0.145,0.232,0.221,0.218,0.122,0.078,���k��,8.3,��
2022/06/30,14:10,0.157,0.145,0.231,0.221,0.218,0.121,0.078,���k��,6.3,��
2022/06/30,14:20,0.157,0.144,0.230,0.222,0.216,0.122,0.078,���k��,6.3,��
2022/06/30,14:30,0.157,0.145,0.231,0.223,0.218,0.121,0.077,��,6.4,��
2022/06/30,14:40,0.158,0.146,0.230,0.222,0.217,0.123,0.078,��,4.0,��
2022/06/30,14:50,0.158,0.145,0.230,0.221,0.217,0.122,0.078,���쐼,1.5,��
2022/06/30,15:00,0.158,0.145,0.233,0.221,0.218,0.122,0.079,��쓌,3.4,��
2022/06/30,15:10,0.157,0.144,0.233,0.221,0.219,0.121,0.078,��,1.5,��
2022/06/30,15:20,0.155,0.144,0.233,0.221,0.217,0.122,0.078,��쐼,3.8,��
2022/06/30,15:30,0.155,0.143,0.232,0.223,0.218,0.121,0.078,��,3.2,��
2022/06/30,15:40,0.156,0.144,0.232,0.224,0.218,0.122,0.079,��,3.5,��
2022/06/30,15:50,0.155,0.144,0.231,0.222,0.216,0.121,0.078,��,2.8,��
2022/06/30,16:00,0.156,0.144,0.229,0.223,0.216,0.121,0.078,��,2.1,��
2022/06/30,16:10,0.157,0.145,0.229,0.222,0.216,0.121,0.077,��쐼,1.1,��
2022/06/30,16:20,0.157,0.144,0.230,0.222,0.217,0.121,0.079,��,0.8,��
2022/06/30,16:30,0.158,0.144,0.229,0.220,0.217,0.121,0.078,��,2.6,��
2022/06/30,16:40,0.156,0.144,0.229,0.221,0.216,0.121,0.078,��쐼,2.1,��
2022/06/30,16:50,0.156,0.145,0.230,0.221,0.218,0.122,0.078,��,3.7,��
2022/06/30,17:00,0.157,0.144,0.228,0.221,0.217,0.122,0.079,��,3.5,��
2022/06/30,17:10,0.157,0.146,0.230,0.221,0.218,0.121,0.079,��,4.1,��
2022/06/30,17:20,0.157,0.144,0.232,0.220,0.220,0.121,0.079,��,3.8,��
2022/06/30,17:30,0.156,0.145,0.232,0.222,0.219,0.123,0.079,��쐼,3.5,��
2022/06/30,17:40,0.156,0.145,0.232,0.221,0.219,0.123,0.078,��쐼,2.9,��
2022/06/30,17:50,0.156,0.146,0.231,0.222,0.221,0.122,0.079,��,2.8,��
2022/06/30,18:00,0.156,0.145,0.232,0.222,0.220,0.122,0.078,��쐼,3.1,��
2022/06/30,18:10,0.157,0.144,0.232,0.222,0.220,0.122,0.078,��쐼,3.0,��
2022/06/30,18:20,0.157,0.144,0.232,0.222,0.219,0.122,0.079,��쐼,3.1,��
2022/06/30,18:30,0.156,0.145,0.232,0.223,0.219,0.124,0.078,�쐼,3.0,��
2022/06/30,18:40,0.156,0.144,0.232,0.222,0.217,0.122,0.077,�쐼,3.4,��
2022/06/30,18:50,0.155,0.145,0.231,0.223,0.217,0.123,0.078,�쐼,2.5,��
2022/06/30,19:00,0.157,0.144,0.232,0.225,0.217,0.123,0.078,���쐼,2.5,��
2022/06/30,19:10,0.156,0.144,0.231,0.225,0.218,0.123,0.079,��,2.2,��
2022/06/30,19:20,0.157,0.145,0.231,0.224,0.219,0.122,0.079,�k��,2.8,��
2022/06/30,19:30,0.156,0.146,0.231,0.223,0.217,0.122,0.079,�k��,3.0,��
2022/06/30,19:40,0.155,0.144,0.232,0.224,0.217,0.123,0.078,�k��,3.7,��
2022/06/30,19:50,0.154,0.145,0.234,0.223,0.218,0.123,0.078,�k�k��,3.4,��
2022/06/30,20:00,0.156,0.144,0.236,0.224,0.218,0.124,0.078,�k��,2.9,��
2022/06/30,20:10,0.158,0.144,0.233,0.225,0.217,0.122,0.079,�k��,2.5,��
2022/06/30,20:20,0.157,0.146,0.232,0.225,0.217,0.122,0.079,�k��,3.0,��
2022/06/30,20:30,0.156,0.145,0.231,0.224,0.218,0.123,0.079,�k��,3.1,��
2022/06/30,20:40,0.157,0.144,0.230,0.223,0.219,0.123,0.078,�k��,1.2,��
2022/06/30,20:50,0.158,0.145,0.232,0.223,0.220,0.122,0.079,�k�k��,0.7,��
2022/06/30,21:00,0.158,0.146,0.234,0.226,0.222,0.123,0.079,��,0.6,��
2022/06/30,21:10,0.157,0.146,0.233,0.225,0.220,0.123,0.079,���쓌,1.1,��
2022/06/30,21:20,0.157,0.144,0.232,0.223,0.219,0.124,0.079,���쓌,0.6,��
2022/06/30,21:30,0.157,0.146,0.235,0.224,0.221,0.123,0.079,-,CALM,��
2022/06/30,21:40,0.157,0.146,0.235,0.228,0.221,0.122,0.079,�쓌,1.1,��
2022/06/30,21:50,0.156,0.144,0.231,0.224,0.219,0.124,0.079,��쓌,1.3,��
2022/06/30,22:00,0.158,0.145,0.232,0.224,0.218,0.122,0.079,���쓌,0.7,��
2022/06/30,22:10,0.159,0.146,0.234,0.224,0.219,0.123,0.080,-,CALM,��
2022/06/30,22:20,0.157,0.144,0.233,0.226,0.220,0.124,0.079,-,CALM,��
2022/06/30,22:30,0.156,0.146,0.231,0.224,0.220,0.123,0.079,-,CALM,��
2022/06/30,22:40,0.159,0.146,0.234,0.223,0.219,0.122,0.080,-,CALM,��
2022/06/30,22:50,0.157,0.145,0.234,0.226,0.218,0.124,0.079,-,CALM,��
2022/06/30,23:00,0.155,0.145,0.232,0.225,0.222,0.122,0.079,-,CALM,��
2022/06/30,23:10,0.159,0.146,0.233,0.223,0.222,0.123,0.080,-,CALM,��
2022/06/30,23:20,0.158,0.144,0.235,0.225,0.219,0.124,0.079,-,CALM,��
2022/06/30,23:30,0.158,0.146,0.234,0.224,0.218,0.124,0.079,��쐼,0.6,��
2022/06/30,23:40,0.157,0.146,0.231,0.224,0.222,0.123,0.081,���쐼,0.8,��
2022/06/30,23:50,0.158,0.145,0.234,0.224,0.222,0.124,0.080,�쐼,2.3,��
